Terminal Aerodrome Forecast
Issued by NWS

Home | Current Version | Previous Version | Text Only | Print | Product List | Glossary On
Versions: 1 2 3 4 5 6 7 8 9 10 11 12 13 14 15 16 17 18 19 20 21 22 23
000
FTUS41 KOKX 300500
TAFHPN
TAF
KHPN 300530Z 3006/3106 18005KT 3SM -SN SCT015 BKN025
      TEMPO 3006/3008 1SM -SN SCT007 BKN015
     FM301100 25004KT 1SM -SN BKN007
     FM301400 31012G20KT P6SM VCSH BKN015
     FM301800 31015G25KT P6SM BKN025
     FM302200 31020G32KT P6SM SCT030 SCT250
      AMD NOT SKED=

USA.gov is the U.S. government's official web portal to all federal, state and local government web resources and services.